Beidou DW 49

operational
NORAD ID: 44709 Int'l Des: 2019-073 Owner: CNSA Country: CN Constellation: BeiDou
HEOCIRCULARGSO

About Beidou DW 49

Description loading...

Live Position

Loading 3D Globe...

Upcoming Passes

Altitude History

Altitude vs Time

uPlot chart will show altitude changes over time

Two-Line Element Set

1 44709U 19073A 25298.36592671 -.00000175 00000-0 00000+0 0 9992
2 44709 55.2074 283.4369 0045122 191.9450 167.8965 1.00258242 22108
Epoch: Oct 25, 2025 • Age: 27 hours

Current Status

Altitude 35960.2 km
Velocity 3.06 km/s
Sub-Earth Point 31.59°N, 102.94°E
Launch Date Nov 4, 2019
Age 5.9 years
Type navigation

Technical Details

Classification Payload
Mass 3060.00 kg
Dry Mass 1700.00 kg
Total Mass 3060.00 kg
Length 3.00 m
Diameter 1.70 m
Span 18.00 m
Shape Box + 2 Pan
Manufacturer CAST
Bus Type DFH-3B
Phase Status In Orbit
Owner/State CNSA/CN

Large Constellations

Loading constellations...